Find Starlink 32489

NORAD ID: 61893 Int'l Des: 2024-204 Owner: SPXS Country: US Constellation: starlink operational
LEOCIRCULAR

实时位置

正在加载3D地球...

关于 Starlink 32489

正在加载描述...

即将过境

Passes for default location (London). Set your location on the main map for personalized predictions.

高度历史

Loading altitude history...

两行轨道根数

1 61893U 24204V 26123.62291036 .00000707 00000-0 32079-4 0 9991
2 61893 53.1626 231.5264 0001465 104.5011 255.6154 15.34390394 83508
Epoch: May 3, 2026 • Age: 15 hours

当前状态

高度 465.1 km
速度 7.63 km/s
星下点 -8.93°S, 105.49°E
发射日期 Nov 9, 2024
运行时间 1.4 years
类型 internet

技术详情

分类 Payload
质量 730.00 kg
干质量 700.00 kg
总质量 730.00 kg
长度 0.30 m
直径 4.10 m
跨度 29.00 m
形状 Box + pan
制造商 SPXS
平台类型 Starlink V2M
阶段状态 In Orbit
所有者/国家 SPXS/US

Most Searched